User: anonymous   Login
Location: Unspecified
(0.0000°N, 0.0000°E)
Time: 00:18:46
(UTC+02:00)
Language:

H-2A R/B - Orbit

View from above orbital plane
View from above orbital plane
View from above satellite
View from above satellite

Ground track
Ground track

The orbit data is extracted from the following two-line orbital elements,

1 26899U 01038B   16274.66420542 +.00000341 +00000-0 +80861-3 0  9999
2 26899 027.9942 170.9945 7104827 015.8536 358.1421 02.47270879130050
Epoch (UTC): 30 September 2016 15:56:27
Eccentricity: 0.7104827
inclination: 27.9942°
perigee height: 310 km
apogee height: 33134 km
right ascension of ascending node: 170.9945°
argument of perigee: 15.8536°
revolutions per day: 2.47270879
mean anomaly at epoch: 358.1421°
orbit number at epoch: 13005

The dashed part of the orbit path shows where the satellite is in the earth's shadow,  

DLR